This demonstration page uses our WeatherBlox Daily Observations layout. Learn more.

Left ArrowRight Arrow

34.02893, -84.19858

Hourly Observations for October 26, 2019

Temp ( °F °C ) Dew Point ( °F °C ) Humidity (%) Winds ( mph kmh ) Pressure ( in mb ) Visibility ( mi km ) Precip ( " mm )
12:22 am 00:22 Cloudy with Light Rain 65 18.3 64 17.8 97 97 ENE 3 6 30.06 1018 8 13 0.00 0.00
12:29 am 00:29 Cloudy with Light Rain 65 18.3 64 17.8 97 97 VRB 5 7 30.06 1018 6 10 0.01 0.25
12:43 am 00:43 Cloudy with Light Rain 65 18.3 65 18.3 100 100 VRB 3 6 30.06 1018 5 8 0.01 0.25
12:53 am 00:53 Cloudy with Light Rain 65 18.3 64 17.8 97 97 VRB 6 9 30.06 1018 6 10 0.02 0.51
1:12 am 01:12 Cloudy with Rain 65 18.3 65 18.3 100 100 VRB 5 7 30.06 1018 3 4 0.02 0.51
1:17 am 01:17 Cloudy with Light Rain 65 18.3 65 18.3 100 100 VRB 5 7 30.06 1018 3 5 0.03 0.76
1:43 am 01:43 Cloudy with Light Rain 65 18.3 65 18.3 100 100 VRB 3 6 30.03 1017 6 10 0.04 1.02
1:53 am 01:53 Cloudy with Light Rain 65 18.3 65 18.3 100 100 E 3 6 30.04 1017 8 13 0.04 1.02
2:06 am 02:06 Cloudy 65 18.3 65 18.3 100 100 Calm 30.03 1017 10 16 0.00 0.00
2:51 am 02:51 Cloudy 64 18 64 18 100 100 E 5 7 30.03 1017 10 16 0.00 0.00
2:53 am 02:53 Cloudy 65 18.3 64 17.8 97 97 Calm 30.04 1017 10 16 0.00 0.00
3:22 am 03:22 Cloudy 65 18.3 64 17.8 97 97 VRB 5 7 30.03 1017 10 16 0.00 0.00
3:53 am 03:53 Cloudy 65 18.3 64 17.8 97 97 VRB 5 7 30.02 1017 10 16 0.00 0.00
4:36 am 04:36 Cloudy 65 18.3 64 17.8 97 97 VRB 5 7 30.00 1016 10 16 0.00 0.00
4:53 am 04:53 Cloudy 65 18.3 64 17.8 97 97 VRB 3 6 30.00 1016 10 16 0.00 0.00
5:14 am 05:14 Cloudy 65 18.3 64 17.8 97 97 VRB 3 6 30.00 1016 10 16 0.00 0.00
5:53 am 05:53 Cloudy 65 18.3 63 17.2 93 93 VRB 5 7 29.99 1016 10 16 0.00 0.00
6:53 am 06:53 Cloudy 65 18.3 63 17.2 93 93 ESE 7 11 29.99 1016 10 16 0.00 0.00
7:53 am 07:53 Cloudy 65 18.3 63 17.2 93 93 VRB 3 6 29.98 1015 10 16 0.00 0.00
8:53 am 08:53 Cloudy 65 18.3 63 17.2 93 93 VRB 6 9 29.97 1015 10 16 0.00 0.00
9:53 am 09:53 Cloudy 66 18.9 64 17.8 93 93 VRB 7 11 29.98 1015 10 16 0.00 0.00
10:53 am 10:53 Cloudy 66 18.9 64 17.8 93 93 ESE 9 15 29.97 1015 10 16 0.00 0.00
11:53 am 11:53 Cloudy 67 19.4 65 18.3 93 93 VRB 7 11 29.95 1014 10 16 0.00 0.00
12:00 pm 12:00 Cloudy 68 20 65 18.3 90 90 ESE 10 17 29.94 1014 10 16 0.00 0.00
12:31 pm 12:31 Cloudy 69 20.6 64 17.8 84 84 SE 12 19 29.94 1014 10 16 0.00 0.00
12:53 pm 12:53 Cloudy 69 20.6 64 17.8 84 84 SE 9 15 29.93 1014 10 16 0.00 0.00
1:53 pm 13:53 Cloudy 69 20.6 66 18.9 90 90 ESE 7 11 29.88 1012 10 16 0.00 0.00
2:53 pm 14:53 Cloudy 72 22.2 66 18.9 82 82 SE 8 13 29.85 1011 10 16 0.00 0.00
3:53 pm 15:53 Cloudy 72 22.2 66 18.9 82 82 VRB 6 9 29.83 1010 10 16 0.00 0.00
4:53 pm 16:53 Cloudy 73 22.8 66 18.9 79 79 VRB 5 7 29.81 1010 10 16 0.00 0.00
5:02 pm 17:02 Cloudy 73 22.8 67 19.4 81 81 VRB 5 7 29.77 1008 10 16 0.00 0.00
5:15 pm 17:15 Cloudy 73 22.8 67 19.4 81 81 SE 7 11 29.77 1008 10 16 0.00 0.00
5:50 pm 17:50 Cloudy 72 22 66 19 83 83 VRB 6 9 29.80 1009 10 16 0.00 0.00
5:53 pm 17:53 Cloudy 72 22.2 67 19.4 84 84 VRB 7 11 29.80 1009 10 16 0.00 0.00
6:02 pm 18:02 Cloudy with Light Rain 72 22.2 67 19.4 84 84 SE 8 13 29.80 1009 6 10 0.01 0.25
6:53 pm 18:53 Cloudy 70 21.1 68 20 93 93 VRB 7 11 29.80 1009 7 11 0.03 0.76
7:02 pm 19:02 Cloudy 70 21.1 68 20 93 93 SE 8 13 29.80 1009 9 14 0.00 0.00
7:09 pm 19:09 Cloudy 70 21.1 68 20 93 93 ESE 5 7 29.80 1009 10 16 0.00 0.00
7:27 pm 19:27 Cloudy 70 21.1 68 20 93 93 VRB 3 6 29.80 1009 10 16 0.00 0.00
7:41 pm 19:41 Cloudy 70 21.1 68 20 93 93 VRB 7 11 29.80 1009 10 16 0.00 0.00
7:53 pm 19:53 Cloudy 70 21.1 68 20 93 93 VRB 6 9 29.79 1009 10 16 0.00 0.00
8:53 pm 20:53 Cloudy 71 21.7 69 20.6 94 94 VRB 7 11 29.79 1009 10 16 0.00 0.00
9:45 pm 21:45 Cloudy 71 21.7 69 20.6 94 94 SE 10 17 29.80 1009 10 16 0.00 0.00
9:53 pm 21:53 Cloudy 71 21.7 69 20.6 94 94 SE 9 15 29.78 1009 10 16 0.00 0.00
10:06 pm 22:06 Cloudy 72 22.2 69 20.6 91 91 SE 7 11 29.80 1009 10 16 0.00 0.00
10:27 pm 22:27 Cloudy 72 22.2 70 21.1 94 94 SE 10 17 29.80 1009 10 16 0.00 0.00
10:53 pm 22:53 Cloudy 72 22.2 70 21.1 94 94 SSE 13 20 29.79 1009 10 16 0.00 0.00
11:37 pm 23:37 Cloudy 72 22.2 69 20.6 91 91 SSE 12 19 29.80 1009 10 16 0.00 0.00
11:53 pm 23:53 Cloudy with Rain 71 21.7 70 21.1 96 96 SSE 9 15 29.78 1009 3 5 0.04 1.02
11:57 pm 23:57 Cloudy with Light Rain 71 21.7 70 21.1 96 96 SSE 12 19 29.77 1008 3 4 0.01 0.25

Powered by AerisWeather